Regional Weather Roundup
Issued by NWS Cleveland, OH

Home | Current Version | Previous Version | Text Only | Print | Product List | Glossary Off
Versions: 1 2 3 4 5 6 7 8 9 10 11 12 13 14 15 16 17 18 19 20 21 22 23 24 25 26 27 28 29 30 31 32 33 34 35 36 37 38 39 40 41 42 43 44 45 46 47 48 49 50

409
ASUS41 KCLE 270900
RWRCLE
OHIO REGIONAL WEATHER ROUNDUP
NATIONAL WEATHER SERVICE WILMINGTON, OH
500 AM EDT SAT AUG 27 2016

NOTE: "FAIR" INDICATES FEW OR NO CLOUDS BELOW 12,000 FEET WITH NO
SIGNIFICANT WEATHER AND/OR OBSTRUCTIONS TO VISIBILITY.

OHZ001>008-015>018-024>027-034-035-043-044-271000-
   NORTHWEST OHIO

CITY           SKY/WX    TMP DP  RH WIND       PRES   REMARKS
DEFIANCE       FAIR      72  63  73 CALM      30.12F
FINDLAY        FAIR      71  59  65 E8        30.12F
TOLEDO EXPRESS FAIR      68  65  90 CALM      30.13S
TOLEDO EXEC    FAIR      70  64  81 CALM      30.14F
LIMA           FAIR      68  64  87 E6        30.13F
$$

OHZ009>014-019>023-028>033-038-089-271000-
   NORTHEAST OHIO

CITY           SKY/WX    TMP DP  RH WIND       PRES   REMARKS
CLE-HOPKINS    FAIR      68  58  70 CALM      30.18S
CLE-LAKEFRONT  FAIR      70  60  70 CALM      30.16R
CUY CO. ARPT   NOT AVBL
LORAIN-ELYRIA  FAIR      63  58  83 CALM      30.16F
ASHTABULA      FAIR      60  60 100 CALM      30.20R
AKRON-CANTON   FAIR      69  58  67 E6        30.18R
WOOSTER        NOT AVBL
MANSFIELD      FAIR      69  60  73 SE5       30.17S
YOUNGSTOWN     FAIR      62  60  93 E5        30.19S
$$

OHZ042-051>053-060>062-070>072-077>081-271000-
  SOUTHWEST OHIO

CITY           SKY/WX    TMP DP  RH WIND       PRES   REMARKS
CINC-COVINGTON CLOUDY    74  72  93 CALM      30.10S
CINC-LUNKEN    NOT AVBL
HAMILTON       FAIR      69  67  93 CALM      30.11S
DAYTON         NOT AVBL
WRIGHT-PAT AFB FAIR      72  70  93 N1        30.11S
DAYTON GENERAL FAIR      74  69  85 E7        30.10F
WILMINGTON     FAIR      72  70  93 E5        30.12S
$$

OHZ036-037-039>041-045>050-054>059-063>069-073>076-082>088-271000-
  CENTRAL AND SOUTHEAST OHIO

CITY           SKY/WX    TMP DP  RH WIND       PRES   REMARKS
COLUMBUS       FAIR      72  62  71 E7        30.12S
OSU AIRPORT    FAIR      71  65  81 E3        30.13F
BOLTON FIELD   NOT AVBL
RICKENBACK AFB NOT AVBL
NEWARK         FAIR      69  65  86 CALM      30.14S
MARION         FAIR      67  60  78 CALM      30.15S
LANCASTER      FAIR      69  67  93 CALM      30.13F
ZANESVILLE     FAIR      69  66  90 CALM      30.15R
NEW PHILLY     FAIR      67  62  84 CALM      30.17S
$$




USA.gov is the U.S. government's official web portal to all federal, state and local government web resources and services.